Preview of NWS' New Version of Forecast
This preview is not operational and should not be used for support decisions.

Regional Weather Roundup (RWR)

Issued by National Weather Service (NWS)

                            
000
ASUS44 KMEG 210810
RWRTN 
TENNESSEE HOURLY STATE WEATHER ROUNDUP
NATIONAL WEATHER SERVICE MEMPHIS TN
300 AM CDT SAT SEP 21 2019

TNZ002-004-019-021-049-052-054-088>092-210900-
WEST TENNESSEE
  
CITY           SKY/WX    TMP DP  RH WIND       PRES   REMARKS
MEMPHIS INTL   FAIR      71  64  78 S6        30.15S                  
NWS MEMPHIS      N/A     71 N/A N/A MISG        N/A                   
JACKSON        FAIR      65  62  90 S3        30.19R                  
DYERSBURG      FAIR      69  64  84 CALM      30.18R                  
SOMERVILLE     CLEAR     70  63  78 CALM      30.16R                  
COVINGTON      CLEAR     64  63  94 CALM      30.16S                  
UNION CITY       N/A     68  64  88 SE3       30.16R                  
BOLIVAR        CLEAR     63  61  94 CALM      30.18R                  
PARIS          CLEAR     70  63  78 S5        30.19R                  
HUNTINGDON     PTCLDY    68  63  83 CALM      30.19R                  
LEXINGTON      CLEAR     63  63 100 CALM      30.19S                  
SELMER         CLEAR     68  63  83 CALM      30.19S                  
SAVANNAH       PTCLDY    64  63  94 CALM      30.19S                  
$$

TNZ008-025-027-028-033-062-065-066-210900-
NORTH MIDDLE TENNESSEE
  
CITY           SKY/WX    TMP DP  RH WIND       PRES   REMARKS
NASHVILLE      FAIR      71  57  61 S5        30.23S                  
DICKSON        SUNNY     72  57  60 S7        30.22R                  
PORTLAND       CLEAR     68  61  77 S7        30.22S                  
CLARKSVILLE    FAIR      66  63  90 CALM      30.21R                  
LEBANON        PTSUNNY   68  57  68 CALM      30.21S                  
SMYRNA         FAIR      66  60  81 SE5       30.24S                  
MURFREESBORO   MOSUNNY   70  57  64 S3        30.22R                  
LIVINGSTON       N/A     68  57  68 SW5       30.26S                  
CROSSVILLE     FAIR      64  55  72 CALM      30.31S                  
ROCKWOOD       SUNNY     64  57  77 SW6       30.29S                  
$$

TNZ061-075-076-078-094-096-097-210900-
SOUTH MIDDLE TENNESSEE
  
CITY           SKY/WX    TMP DP  RH WIND       PRES   REMARKS
LAWRENCEBURG   MOSUNNY   66  55  68 CALM      30.23R                  
LEWISBURG      SUNNY     61  57  88 CALM      30.22S                  
FAYETTEVILLE   CLEAR     66  57  72 SE5       30.23S                  
TULLAHOMA      CLEAR     59  55  88 CALM      30.24S                  
WINCHESTER     CLEAR     64  55  72 CALM      30.25S                  
MCMINNVILLE    CLEAR     64  57  77 CALM      30.25S                  
COLUMBIA       CLEAR     68  61  77 CALM      30.21R                  
SHELBYVILLE    CLEAR     64  57  77 CALM      30.24R                  
$$

TNZ017-018-042-046-047-210900-
NORTHEAST TENNESSEE
  
CITY           SKY/WX    TMP DP  RH WIND       PRES   REMARKS
TRI CITIES     FAIR      59  58  96 CALM      30.30S                  
ELIZABETHTON   FAIR      63  59  88 CALM      30.30S                  
GREENEVILLE    PTSUNNY   64  59  82 CALM      30.29S                  
$$

TNZ012-013-036-069-073-074-210900-
CENTRAL EAST TENNESSEE
  
CITY           SKY/WX    TMP DP  RH WIND       PRES   REMARKS
KNOXVILLE      FAIR      69  59  70 CALM      30.26                   
OAK RIDGE      FAIR      67  61  81 CALM      30.29S                  
DOWNTOWN KNOXV CLEAR     66  66 100 CALM      30.27S FOG              
GATLINBURG     PTCLDY    64  64 100 CALM      30.27S                  
MORRISTOWN     CLOUDY    64  61  88 CALM      30.27S                  
JACKSBORO      CLEAR     61  61 100 CALM      30.31R                  
$$

TNZ083-085-099-210900-
SOUTHEAST TENNESSEE
  
CITY           SKY/WX    TMP DP  RH WIND       PRES   REMARKS
CHATTANOOGA    FAIR      66  60  81 CALM      30.27S                  
$$

SKY/WX REPORTED AS FAIR MEANS FEW OR NO CLOUDS BELOW
12 THOUSAND FEET.